Terug naar catalogus

STARLINK-11193

ActiefCommunicatieVLEO
NORAD 60195·PAYLOAD·🇺🇸 United States

Gelanceerd Jul 3, 2024 vanaf Cape Canaveral Space Force Station

Loading…

Volgende Passages (komende 24 uur)

TLE

VersSource: CelesTrak SupGP

Epoch: Sep 14, 2026, 15:02 UTC

1 60195C 24124N   26257.62687500  .00076401  00000+0  62936-3 0  2573
2 60195  53.1558 309.8352 0001142  91.4078 107.9313 15.69670540    15

Volg STARLINK-11193 in realtime met AllMySat

Download on the App Store